sat.trackr.live / text

‹ back to catalog

STARLINK-34365

NORAD 64671 · 2025-139H

PAYLOAD ACTIVE UNKNOWN

§ Identity

Operator
Country
US
Launch date
2025-06-28
Launch site
AFETR
Launch vehicle
Mass (kg)
RCS (m²)

Purposes: comms

External: N2YO · Heavens-Above · Gunter

§ Orbital elements

Epoch: 2026-09-20T09:36:56.966976Z

Period
93.85 min
Inclination
53.1604°
Eccentricity
0.0001436
Mean motion
15.34393619 rev/d
Perigee alt
461.7 km
Apogee alt
463.7 km
Semi-major
6,840.9 km
B*
3.9158e-4
RAAN
298.4863°
Arg perigee
92.7071°
Mean anomaly
267.4096°
Rev number
7,021

§ Raw data

STARLINK-343651 64671U 25139H   26263.40065934  .00012874  00000+0  39158-3 0  99942 64671  53.1604 298.4863 0001436  92.7071 267.4096 15.34393619 70213

JSON: /api/v1/satellites/64671 · /tle

For live sub-satellite position, see the globe view (requires WebGL).

§ Visibility from observer

Set your observer location to see the next 7 days of passes ≥ 10°. The values pass through the URL so the page stays shareable.

No JS? Fill the form by hand. The geolocation button needs JavaScript.